This is the latest recevied weather packets stored in our database for station/object HG8LXL-2. If no packets are shown the sender has not sent any weather packets the latest 10 day(s).
| Time | Temp. | Humidity | Pressure | Rain* | Wind** | Luminosity | Snow |
|---|---|---|---|---|---|---|---|
| 1788445252 | 31.67° C | 17% | 1013.3 hPa | - | - | - | - |
| 1788444952 | 31.67° C | 17% | 1013.3 hPa | - | - | - | - |
| 1788444652 | 32.22° C | 17% | 1013.4 hPa | - | - | - | - |
| 1788444352 | 32.22° C | 16% | 1013.4 hPa | - | - | - | - |
| 1788444052 | 32.78° C | 15% | 1013.5 hPa | - | - | - | - |
| 1788443752 | 32.78° C | 16% | 1013.4 hPa | - | - | - | - |
| 1788443452 | 32.22° C | 15% | 1013.3 hPa | - | - | - | - |
| 1788443152 | 32.78° C | 16% | 1013.4 hPa | - | - | - | - |
| 1788442852 | 32.22° C | 18% | 1013.6 hPa | - | - | - | - |
| 1788442575 | 32.22° C | 17% | 1013.6 hPa | - | - | - | - |
| 1788442252 | 33.33° C | 16% | 1013.5 hPa | - | - | - | - |
| 1788441952 | 33.33° C | 16% | 1013.6 hPa | - | - | - | - |
| 1788441652 | 33.89° C | 15% | 1013.6 hPa | - | - | - | - |
| 1788441352 | 32.78° C | 16% | 1013.6 hPa | - | - | - | - |
| 1788441057 | 33.33° C | 16% | 1013.5 hPa | - | - | - | - |
| 1788440753 | 32.78° C | 16% | 1013.6 hPa | - | - | - | - |
| 1788440452 | 32.22° C | 17% | 1013.7 hPa | - | - | - | - |
| 1788440152 | 32.22° C | 17% | 1013.8 hPa | - | - | - | - |
| 1788439852 | 31.67° C | 17% | 1013.7 hPa | - | - | - | - |
| 1788439556 | 31.67° C | 17% | 1013.7 hPa | - | - | - | - |
| 1788439252 | 32.22° C | 16% | 1013.7 hPa | - | - | - | - |
| 1788438952 | 32.78° C | 16% | 1013.7 hPa | - | - | - | - |
| 1788438652 | 32.78° C | 15% | 1013.7 hPa | - | - | - | - |
| 1788438352 | 33.33° C | 16% | 1013.7 hPa | - | - | - | - |
| 1788438052 | 33.33° C | 15% | 1013.7 hPa | - | - | - | - |
* Rain since midnight (hover to see other rain measurements)
** Current wind speed in m/s (hover to see current wind gust speed)